Regional Weather Roundup
Issued by NWS Newport/Morehead, NC

Current Version | Previous Version | Text Only | Print | Product List | Glossary On
Versions: 1 2 3 4 5 6 7 8 9 10 11 12 13 14 15 16 17 18 19 20 21 22 23 24 25 26 27 28 29 30 31 32 33 34 35 36 37 38 39 40 41 42 43 44 45 46 47 48 49 50
000
ASUS42 KMHX 241913
RWRMHX
WEATHER ROUNDUP FOR EASTERN NORTH CAROLINA
NATIONAL WEATHER SERVICE NEWPORT/MOREHEAD CITY NC
300 PM EDT SUN MAY 24 2015

NOTE: "FAIR" INDICATES FEW OR NO CLOUDS BELOW 12,000 FEET
WITH NO SIGNIFICANT WEATHER AND/OR OBSTRUCTIONS TO VISIBILITY

NCZ015>017-031-032-045>047-102-103-242000-
NORTH COAST

CITY           SKY/WX    TMP DP  RH WIND       PRES   REMARKS
EDENTON          N/A     79  56  45 SW6       30.37F
ELIZABETH CITY SUNNY     78  58  49 SE12      30.38F
KITTY HAWK     CLEAR     73  50  43 SE8       30.39S
MANTEO         SUNNY     74  55  50 E9        30.40S

$$

NCZ045>047-081-094-103-104-242000-
CENTRAL COAST

CITY           SKY/WX    TMP DP  RH WIND       PRES   REMARKS
FRISCO         SUNNY     76  54  46 E7        30.40F
SWANQUARTER      N/A     79 N/A N/A S12       30.36S

$$

NCZ095-097-098-100-101-242000-
SOUTHERN COAST

CITY           SKY/WX    TMP DP  RH WIND       PRES   REMARKS
BEAUFORT       SUNNY     77  59  53 E10       30.38F
CEDAR ISLAND     N/A     77 N/A N/A E5        30.44S
JACKSONVILLE   SUNNY     79  53  40 S10       30.37F
PINEY ISLAND   CLEAR    N/A N/A N/A E9        30.38F
WILMINGTON     MOSUNNY   79  55  43 E10       30.37F


$$

NCZ011>013-027>030-043-044-078>080-089-090>093-098-242000-
COASTAL PLAIN

CITY           SKY/WX    TMP DP  RH WIND       PRES   REMARKS
AHOSKIE        SUNNY     78  55  44 S3        30.37F
CLINTON        SUNNY     80  59  47 CALM      30.36F
ELIZABETHTOWN  MOSUNNY   82  50  33 S5        30.35F
GOLDSBORO      MOSUNNY   83  56  38 E6        30.34F
GREENVILLE     SUNNY     79  54  41 S5        30.37F
HAVELOCK       MOSUNNY   77  55  46 E10       30.38F
KENANSVILLE    PTSUNNY   79  51  38 CALM      30.37F
KINSTON        MOSUNNY   82  52  34 E7        30.37F
NEW BERN       MOSUNNY   81  57  43 SE9       30.38F
RICHLANDS      SUNNY     81  54  39 SE9       30.37F
ROCKY MOUNT    MOSUNNY   83  54  36 VRB5      30.36F
WASHINGTON     SUNNY     79  56  44 SE8       30.37F
WHITEVILLE     PTSUNNY   80  57  46 SE8       30.35F

$$

AMZ130-135-150-152-154-156-158-170-250-252-270-ANZ085-086-088-633-658-670-242000-
MARINE OBSERVATIONS

STATION/POSITION TIME  TEMP    WIND        PRES    WAVE   SWELL
                       AIR SEA DIR/SP/G            HT/PER HT/PER
                 (UTC) (F)     (DEG/KT/KT) (MB)    (FT/S) (FT/S)
CHESAPEAKE LIGHT 1800   63     150/ 16/ 17 1029.6
64 E VA BEACH    1850   64 62  150/  6/  6 1029.0    1/ 7   2/ 7
DUCK             1800   67 63  130/ 11/ 12 1028.5
2 E DUCK         1811      65                N/A     2/ 4
OREGON INLET     1800   71 70   90/  8/ 13 1029.6
13E OREGON INLT  1900      66                N/A     2/ 6
HATTERAS CG      1800   73 73  120/  6/  9 1029.2
DIAMOND BUOY     1850   74 79   70/  6/  8 1029.2    2/ 7   2/ 7
CAPE LOOKOUT     1900   75      90/  6/  7 1028.6
BEAUFORT LAB     1800   75 74  130/  9/ 12 1028.4
27 SE WRIGHTSVLE 1800   72 77  110/ 10/ 12   N/A
5 SE WRIGHTSVLE  1808   75 77  120/  8/ 12 1029.0
225 S CAPE HAT   1850   72 74   70/ 17/ 21 1027.5    6/ 6   2/10
41 SE CHARLESTON 1850   76 75   90/ 16/ 17 1026.6    5/ 7   2/14

$$



USA.gov is the U.S. government's official web portal to all federal, state and local government web resources and services.